Regional Weather Roundup
Issued by NWS Little Rock, AR

Home | Current Version | Previous Version | Text Only | Print | Product List | Glossary Off
Versions: 1 2 3 4 5 6 7 8 9 10 11 12 13 14 15 16 17 18 19 20 21 22 23 24 25 26 27

000
ASUS44 KLZK 281605
RWRLZK

WEATHER ROUNDUP FOR ARKANSAS
NATIONAL WEATHER SERVICE LITTLE ROCK AR
1100 AM CDT THU JUL 28 2016

NOTE: "FAIR" INDICATES FEW OR NO CLOUDS BELOW 12,000 FEET WITH NO
SIGNIFICANT WEATHER AND/OR OBSTRUCTIONS TO VISIBILITY.

ARZ001-003-010-029-281700-
NORTHWEST ARKANSAS

CITY           SKY/WX    TMP DP  RH WIND       PRES   REMARKS
FAYETTEVILLE   MOSUNNY   82  76  81 NW6       30.00S HX  89
FORT SMITH     SUNNY     87  72  60 W3        29.97R HX  93
HARRISON       PTSUNNY   82  74  76 NW6       30.00R HX  88
BENTONVILLE    PTSUNNY   82  73  74 CALM      30.02S HX  88
ROGERS         MOSUNNY   81  75  82 NW6       30.02S HX  87
SILOAM SPGS    MOSUNNY   82  70  65 N6        30.01F HX  86
HIGHFILL       MOSUNNY   84  77  79 W3        30.00F HX  94
SPRINGDALE     PTSUNNY   82  75  78 NW6       30.02S HX  89
$$

ARZ004-005-016-281700-
NORTH CENTRAL ARKANSAS

CITY           SKY/WX    TMP DP  RH WIND       PRES   REMARKS
BATESVILLE     SUNNY     84  75  74 NW5       29.95R HX  92
FLIPPIN        MOSUNNY   84  72  65 NW5       29.94R HX  89
MTN HOME       SUNNY     83  74  74 VRB5      29.96S HX  89
$$

ARZ040-041-281700-
WEST CENTRAL ARKANSAS

CITY           SKY/WX    TMP DP  RH WIND       PRES   REMARKS
MENA           NOT AVBL
MOUNT IDA      MOSUNNY   84  75  74 W6        29.97F HX  92
$$

ARZ009-017-025-026-028-281700-
NORTHEAST ARKANSAS

CITY           SKY/WX    TMP DP  RH WIND       PRES   REMARKS
CORNING          N/A     84  77  79 SW6       29.93S HX  94
JONESBORO      MOSUNNY   85  76  74 CALM      29.92F HX  94
NEWPORT        CLOUDY    87  76  69 SW7       29.95S HX  97
WALNUT RIDGE   MOSUNNY   84  73  70 SW5       29.92S HX  91
BLYTHEVILLE    PTSUNNY   83  76  79 VRB6      29.94S HX  91
NW BLYTHEVILLE PTSUNNY   84  73  70 SW6       29.93S HX  91
$$

ARZ022-023-033-042-044-281700-
CENTRAL ARKANSAS

CITY           SKY/WX    TMP DP  RH WIND       PRES   REMARKS
LITTLE ROCK    MOSUNNY   88  75  65 SW6       29.97R HX  97
N LITTLE ROCK    N/A     84  76  79 W5        29.94R HX  93
JACKSONVILLE   MOSUNNY   85  77  75 SW6       29.95  HX  96
SEARCY         PTSUNNY   84  77  79 SW3       29.97R HX  94
HOT SPRINGS    PTSUNNY   83  73  72 SW10      30.00R HX  89
RUSSELLVILLE   MOSUNNY   85  75  72 NW8       29.95S HX  93
$$

ARZ036-281700-
EAST ARKANSAS

CITY           SKY/WX    TMP DP  RH WIND       PRES   REMARKS
WEST MEMPHIS   CLOUDY    79  75  87 VRB5      29.95R
$$

ARZ050-053-066-070-073-281700-
SOUTHWEST ARKANSAS

CITY           SKY/WX    TMP DP  RH WIND       PRES   REMARKS
ARKADELPHIA    CLOUDY    77  74  90 SW9       30.01R
CAMDEN         RAIN      73  72  94 W6        30.02S
TEXARKANA      TSTM      76  74  93 W7        30.02R
EL DORADO      RAIN      72  71  97 SW5       30.03S FOG
DE QUEEN       CLOUDY    75  74  96 CALM      29.99S
$$

ARZ056-057-069-281700-
SOUTHEAST ARKANSAS

CITY           SKY/WX    TMP DP  RH WIND       PRES   REMARKS
PINE BLUFF     CLOUDY    81  73  76 SW10      29.98R HX  86
STUTTGART      CLOUDY    82  73  74 SW7       29.97R HX  88
MONTICELLO     CLOUDY    80  75  84 W9        30.01R HX  85

$$






USA.gov is the U.S. government's official web portal to all federal, state and local government web resources and services.